Location: *
(31.2983°S, 151.4094°E)
Time: 05:53:50
(UTC+00:00)

ATLAS 2AS CENTAUR R/B - Pass Details

Date: 25 August 2019
Orbit: 927 x 1285 km, 63.7° (Epoch: 14 September)

Event Time Altitude Azimuth Distance (km) Brightness Sun altitude
Exits shadow 17:09:36 29° 103° (ESE) 1,670 4.1 -40.9°
Drops below altitude 10° 17:13:08 10° 132° (SE) 2,654 5.3 -40.2°
Sets 17:15:51 0° 140° (SE) 3,599 6.1 -39.6°
